Find Local Weather

World > North America > United States > Pennsylvania

Tunkhannock, Pennsylvania Regional Weather

Lat: 41.54N, Lon: 75.95W
Wx Zone: PAZ043
Feedback
Expires:201810190400;;399222
ASUS41 KPHI 190313
RWRPHI

REGIONAL WEATHER ROUNDUP
NATIONAL WEATHER SERVICE MOUNT HOLLY NJ
1100 PM EDT THU OCT 18 2018

NOTE:  "FAIR" INDICATES FEW OR NO CLOUDS BELOW 12,000 FEET WITH NO
SIGNIFICANT WEATHER AND/OR OBSTRUCTIONS TO VISIBILITY.

 * = STATION DOES NOT REPORT PRECIPITATION (E.G. RAIN, SNOW, ETC.) 
        OR FOG.


PAZ043-044-047-054-055-060>062-066>071-190400-
EASTERN PENNSYLVANIA
  
CITY           SKY/WX    TMP DP  RH WIND       PRES   REMARKS
PHILADELPHIA   FAIR      47  31  53 W7        30.38S                  
NORTH PHILA    FAIR      43  35  73 CALM      30.38S                  
BLUE BELL*     FAIR      34  34 100 CALM      30.38S                  
DOYLESTOWN     FAIR      38  31  76 CALM      30.36R                  
QUAKERTOWN*    CLEAR     36  34  93 CALM      30.36S                  
PERKASIE*      FAIR      32  32 100 CALM      30.36S                  
POTTSTOWN      FAIR      36  33  89 CALM      30.38S                  
LANCASTER      FAIR      44  33  65 CALM      30.38R                  
COATESVILLE    FAIR      41  34  75 W3        30.38S                  
READING        FAIR      38  36  92 CALM      30.36S                  
ALLENTOWN      FAIR      37  31  78 W3        30.35F                  
MOUNT POCONO   FAIR      33  26  75 NW10      30.28F WCI  25          
HAZLETON       FAIR      30  19  64 CALM      30.34F                  
LEHIGHTON      FAIR      32  32 100 CALM      30.36S                  
WILKES BARRE   FAIR      35  28  75 E6        30.33F WCI  30          

$$

SKY/WX - Weather  TMP - Temperature  DP - Dew Point  RH - Relative Humidity
WIND - Wind Direction/Speed PRES - Barometric Pressure